Hourly Weather Barnowko

Today, 30 September, Wednesday

Time Temperature Precipitation Wind Pressure Humidity
00:00 +11°C° 0 mm 1 mps 758 mmHg 86%
01:00 +10°C° 0 mm 2 mps 758 mmHg 87%
02:00 +11°C° 0 mm 1 mps 758 mmHg 88%
03:00 +11°C° 0 mm 1 mps 758 mmHg 90%
04:00 +11°C° 0 mm 1 mps 757 mmHg 91%
05:00 +11°C° 0 mm 1 mps 757 mmHg 91%
06:00 +11°C° 0 mm 1 mps 758 mmHg 91%
07:00 +10°C° 0 mm 2 mps 758 mmHg 90%
08:00 +13°C° 0 mm 2 mps 758 mmHg 85%
09:00 +14°C° 0 mm 2 mps 758 mmHg 80%
10:00 +16°C° 0 mm 2 mps 758 mmHg 75%
11:00 +16°C° 0 mm 2 mps 757 mmHg 74%
12:00 +16°C° 0 mm 1 mps 757 mmHg 74%
13:00 +18°C° 0 mm 1 mps 757 mmHg 74%
14:00 +18°C° 0 mm 1 mps 757 mmHg 75%
15:00 +16°C° 0 mm 1 mps 756 mmHg 76%
16:00 +16°C° 0 mm 1 mps 756 mmHg 78%
17:00 +16°C° 0 mm 1 mps 756 mmHg 80%
18:00 +15°C° 0 mm 1 mps 756 mmHg 82%
19:00 +14°C° 0 mm 1 mps 756 mmHg 84%
20:00 +14°C° 0 mm 1 mps 756 mmHg 86%
21:00 +13°C° 0 mm 1 mps 756 mmHg 89%
22:00 +13°C° 0 mm 2 mps 756 mmHg 91%
23:00 +12°C° 0 mm 2 mps 755 mmHg 91%

Tomorrow, 1 October, Thursday

Time Temperature Precipitation Wind Pressure Humidity
00:00 +12°C° 0 mm 2 mps 755 mmHg 91%
01:00 +12°C° 0 mm 1 mps 755 mmHg 91%
02:00 +10°C° 0 mm 2 mps 754 mmHg 90%
03:00 +10°C° 0 mm 2 mps 754 mmHg 88%
04:00 +10°C° 0 mm 2 mps 753 mmHg 86%
05:00 +11°C° 0 mm 1 mps 753 mmHg 86%
06:00 +11°C° 0 mm 1 mps 753 mmHg 86%
07:00 +11°C° 0 mm 1 mps 752 mmHg 86%
08:00 +12°C° 0 mm 1 mps 752 mmHg 84%
09:00 +13°C° 0 mm 1 mps 752 mmHg 83%
10:00 +15°C° 0 mm 1 mps 751 mmHg 81%
11:00 +16°C° 0 mm 1 mps 751 mmHg 77%
12:00 +18°C° 0 mm 1 mps 750 mmHg 74%
13:00 +17°C° 0 mm 2 mps 750 mmHg 71%
14:00 +18°C° 0 mm 2 mps 749 mmHg 69%
15:00 +19°C° 0 mm 1 mps 749 mmHg 68%
16:00 +19°C° 0 mm 1 mps 749 mmHg 67%
17:00 +18°C° 0 mm 1 mps 749 mmHg 71%
18:00 +16°C° 0 mm 1 mps 749 mmHg 74%
19:00 +15°C° 0 mm 1 mps 749 mmHg 78%
20:00 +15°C° 0 mm 2 mps 749 mmHg 77%
21:00 +15°C° 0 mm 2 mps 749 mmHg 77%
22:00 +15°C° 0 mm 2 mps 749 mmHg 77%
23:00 +14°C° 0 mm 2 mps 749 mmHg 78%

Day after tomorrow, 2 October, Friday

Time Temperature Precipitation Wind Pressure Humidity
00:00 +14°C° 0 mm 2 mps 749 mmHg 80%
01:00 +14°C° 0 mm 2 mps 749 mmHg 82%
02:00 +14°C° 0 mm 2 mps 749 mmHg 83%
03:00 +12°C° 0 mm 3 mps 749 mmHg 83%
04:00 +12°C° 0 mm 3 mps 749 mmHg 84%
05:00 +12°C° 0 mm 3 mps 749 mmHg 86%
06:00 +11°C° 0 mm 3 mps 749 mmHg 88%
07:00 +11°C° 0 mm 3 mps 749 mmHg 89%
08:00 +12°C° 0 mm 4 mps 749 mmHg 84%
09:00 +14°C° 0 mm 4 mps 749 mmHg 80%
10:00 +15°C° 0 mm 4 mps 750 mmHg 75%
11:00 +16°C° 0 mm 5 mps 750 mmHg 72%
12:00 +16°C° 0 mm 5 mps 749 mmHg 70%
13:00 +17°C° 0 mm 5 mps 749 mmHg 68%
14:00 +16°C° 0 mm 5 mps 749 mmHg 69%
15:00 +16°C° 0 mm 5 mps 749 mmHg 70%
16:00 +15°C° 0 mm 5 mps 749 mmHg 71%
17:00 +15°C° 0 mm 5 mps 749 mmHg 74%
18:00 +14°C° 0 mm 5 mps 749 mmHg 76%
19:00 +13°C° 0 mm 4 mps 749 mmHg 79%
20:00 +13°C° 0 mm 5 mps 749 mmHg 81%
21:00 +13°C° 0 mm 5 mps 749 mmHg 83%
22:00 +13°C° 0 mm 5 mps 749 mmHg 85%
23:00 +13°C° 0 mm 5 mps 748 mmHg 86%

3 October, Saturday

Time Temperature Precipitation Wind Pressure Humidity
00:00 +13°C° 0 mm 6 mps 748 mmHg 86%
01:00 +13°C° 0 mm 6 mps 747 mmHg 87%
02:00 +11°C° 0 mm 6 mps 747 mmHg 87%
03:00 +11°C° 0 mm 6 mps 747 mmHg 87%
04:00 +11°C° 0 mm 7 mps 746 mmHg 88%
05:00 +12°C° 0 mm 7 mps 746 mmHg 85%
06:00 +12°C° 0 mm 7 mps 745 mmHg 83%
07:00 +14°C° 0 mm 7 mps 745 mmHg 81%
08:00 +15°C° 0 mm 7 mps 745 mmHg 77%
09:00 +16°C° 0 mm 8 mps 745 mmHg 72%
10:00 +18°C° 0 mm 8 mps 744 mmHg 68%
11:00 +20°C° 0 mm 8 mps 744 mmHg 65%
12:00 +21°C° 0 mm 8 mps 744 mmHg 62%
13:00 +22°C° 0 mm 8 mps 743 mmHg 59%
14:00 +22°C° 0 mm 7 mps 743 mmHg 60%
15:00 +22°C° 0 mm 6 mps 743 mmHg 60%
16:00 +22°C° 0 mm 5 mps 742 mmHg 60%
17:00 +21°C° 0 mm 6 mps 742 mmHg 63%
18:00 +20°C° 0 mm 6 mps 742 mmHg 65%
19:00 +20°C° 0 mm 6 mps 741 mmHg 67%
20:00 +20°C° 0 mm 6 mps 741 mmHg 68%
21:00 +19°C° 0 mm 6 mps 741 mmHg 69%
22:00 +19°C° 0 mm 6 mps 741 mmHg 70%
23:00 +19°C° 0 mm 6 mps 740 mmHg 71%

4 October, Sunday

Time Temperature Precipitation Wind Pressure Humidity
00:00 +19°C° 0 mm 6 mps 740 mmHg 72%
01:00 +19°C° 0 mm 6 mps 740 mmHg 72%
02:00 +19°C° 0 mm 6 mps 740 mmHg 74%
03:00 +17°C° 0 mm 5 mps 740 mmHg 75%
04:00 +18°C° 0 mm 4 mps 740 mmHg 76%
05:00 +15°C° 0.8 mm 5 mps 741 mmHg 79%
06:00 +13°C° 0.8 mm 6 mps 741 mmHg 83%
07:00 +11°C° 0.8 mm 7 mps 742 mmHg 86%
08:00 +11°C° 0.4 mm 6 mps 743 mmHg 81%
09:00 +13°C° 0.4 mm 4 mps 744 mmHg 77%
10:00 +14°C° 0.4 mm 3 mps 746 mmHg 73%
11:00 +16°C° 0 mm 3 mps 746 mmHg 68%
12:00 +17°C° 0 mm 3 mps 747 mmHg 63%
13:00 +18°C° 0 mm 2 mps 747 mmHg 59%
14:00 +18°C° 0 mm 2 mps 748 mmHg 59%
15:00 +18°C° 0 mm 3 mps 748 mmHg 59%
16:00 +18°C° 0 mm 3 mps 748 mmHg 60%
17:00 +17°C° 0 mm 3 mps 748 mmHg 64%
18:00 +16°C° 0 mm 2 mps 749 mmHg 68%
19:00 +14°C° 0 mm 2 mps 749 mmHg 71%
20:00 +14°C° 0 mm 2 mps 749 mmHg 73%
21:00 +14°C° 0 mm 2 mps 749 mmHg 75%
22:00 +13°C° 0 mm 2 mps 749 mmHg 77%
23:00 +13°C° 0 mm 2 mps 749 mmHg 78%

5 October, Monday

Time Temperature Precipitation Wind Pressure Humidity
00:00 +13°C° 0 mm 2 mps 749 mmHg 79%
01:00 +12°C° 0 mm 2 mps 748 mmHg 80%
02:00 +11°C° 0 mm 3 mps 748 mmHg 80%
03:00 +11°C° 0 mm 3 mps 748 mmHg 81%
04:00 +11°C° 0 mm 3 mps 747 mmHg 82%
05:00 +11°C° 0 mm 4 mps 747 mmHg 84%
06:00 +11°C° 0 mm 4 mps 747 mmHg 85%
07:00 +12°C° 0 mm 4 mps 746 mmHg 87%
08:00 +13°C° 0 mm 4 mps 746 mmHg 81%
09:00 +15°C° 0 mm 4 mps 746 mmHg 75%
10:00 +16°C° 0 mm 5 mps 745 mmHg 69%
11:00 +18°C° 0 mm 4 mps 745 mmHg 64%
12:00 +19°C° 0 mm 4 mps 744 mmHg 59%
13:00 +20°C° 0 mm 4 mps 744 mmHg 54%
14:00 +20°C° 0.3 mm 3 mps 744 mmHg 58%
15:00 +19°C° 0.3 mm 3 mps 743 mmHg 63%
16:00 +19°C° 0.3 mm 2 mps 743 mmHg 67%
17:00 +18°C° 0.2 mm 2 mps 743 mmHg 71%
18:00 +16°C° 0.2 mm 2 mps 743 mmHg 76%
19:00 +15°C° 0.2 mm 2 mps 743 mmHg 80%
20:00 +15°C° 0.2 mm 2 mps 743 mmHg 83%
21:00 +13°C° 0.2 mm 3 mps 743 mmHg 86%
22:00 +13°C° 0.2 mm 3 mps 743 mmHg 89%
23:00 +13°C° 0.6 mm 4 mps 743 mmHg 87%
Show more